Regional Weather Roundup
Issued by NWS

Home | Current Version | Previous Version | Graphics & Text | Print | Product List | Glossary On
Versions: 1 2 3 4 5 6 7 8 9 10 11 12 13 14 15 16 17 18 19 20 21 22 23 24 25 26 27 28 29 30 31 32 33 34 35 36 37 38 39 40 41 42 43 44 45 46 47 48 49 50
938
ASUS45 KSLC 231210
RWRUT

UTAH REGIONAL WEATHER ROUNDUP
NATIONAL WEATHER SERVICE SALT LAKE CITY UT
600 AM MDT SAT SEP 23 2017

UTZ001>011-023>025-231300-

NORTHERN UTAH

CITY           SKY/WX    TMP DP  RH WIND       PRES   REMARKS
BRIGHAM CITY   CLEAR     37  33  86 NW3       29.97S
HILL AFB       CLEAR     39  33  78 E12       29.95F WCI  32
LOGAN          PTCLDY    33  32  96 CALM      30.00R FOG
OGDEN          CLEAR     37  35  92 SW5       29.95F WCI  33
SALT LAKE CITY PTCLDY    42  39  89 CALM      29.95S
TOOELE VALLEY  PTCLDY    34  34 100 S5        29.96S WCI  30
WENDOVER       CLOUDY    42  35  76 CALM      29.99F
HEBER CITY     CLOUDY    36  34  93 CALM      29.96R
WEST JORDAN    CLEAR     39  39 100 CALM      29.96S

$$

UTZ011>015-024>027-231300-

CENTRAL/NORTHEAST UTAH

CITY           SKY/WX    TMP DP  RH WIND       PRES   REMARKS
PROVO AIRPORT  CLOUDY    41  38  89 CALM      29.95F
MOAB/CANYONLAN CLEAR     48  28  46 W7        29.79S
DELTA          CLOUDY    36  36 100 CALM      29.94S
PRICE          CLEAR     42  26  53 W6        29.85F
RICHFIELD      MOCLDY    41  39  93 N6        29.95S
ROOSEVELT      CLOUDY    41  32  70 CALM      29.94S
VERNAL         CLOUDY    48  34  58 N5        29.91F

$$

UTZ013>016-019>022-027-231300-

SOUTHERN UTAH

CITY           SKY/WX    TMP DP  RH WIND       PRES   REMARKS
BRYCE CANYON   CLOUDY    31  30  96 N6        29.93S WCI  25
CEDAR CITY     PTCLDY    35  34  96 CALM      29.90S
MILFORD        CLOUDY    39  37  92 N14       29.92S WCI  31
ST GEORGE      SUNNY     54  36  50 SE6       29.82S
HANKSVILLE     CLEAR     41  32  70 CALM      29.84S
KANAB          CLEAR     34  23  64 E7        29.88S WCI  28
BLANDING         N/A     52  44  75 SE5       29.93S

$$

REGIONAL REPORTS     COLORADO/ARIZONA

CITY           SKY/WX    TMP DP  RH WIND       PRES   REMARKS
CRAIG, CO      LGT RAIN  42  38  85 CALM      29.97S
GRAND JUNCTION CLOUDY    57  44  62 SE17G25   29.83S
RIFLE, CO      RAIN      53  47  79 S5        29.93R
MONTROSE, CO   LGT RAIN  50  44  80 N12       29.92R
CORTEZ, CO     LGT RAIN  49  48  97 CALM      29.90F
PAGE, AZ       CLEAR     50  23  34 CALM      29.80R
GRAND CANYON   CLEAR     26  14  60 CALM      29.88F
KINGMAN, AZ    CLEAR     46  25  43 E9        29.80R
FLAGSTAFF, AZ  CLEAR     34  28  79 CALM      29.90S

$$

REGIONAL REPORTS    NEVADA/IDAHO/WYOMING

CITY           SKY/WX    TMP DP  RH WIND       PRES   REMARKS
LAS VEGAS, NV  PTCLDY    63  30  28 NW17G25   29.78S
ELY, NY        CLOUDY    29  29 100 N8        29.98F FOG     WCI  21
ELKO, NV       FOG       30  29  96 CALM      30.01S VSB 3/4
POCATELLO, ID  CLOUDY    37  36  96 CALM      30.04R
BURLEY, ID     PTCLDY    33  31  92 CALM      30.01R
EVANSTON, WY   CLOUDY    31  29  92 N8        29.97S WCI  23
ROCK SPRINGS,  CLOUDY    36  33  89 S5        30.00S WCI  32
KEMMERER, WY     N/A     30  30 100 N5        29.99S WCI  25

$$




USA.gov is the U.S. government's official web portal to all federal, state and local government web resources and services.